Presure
206 176 249 323 346 339 323 313 332 362 375 377 366 270 242 255 265 244 221 199 202 202 185 180 210 212 187 155 89 100 129 168 169 137 145 140 142 143 144 141 139 142 146 122 150
120 260 281 344 324 315 309 308 311 173 344 354 347 334 336 232 250 246 233 216 181 201 208 182 206 210 205 217 133 191 90 188 142 178 179 186 135 139 138 141 126 144 145 137 109
263 258 369 352 321 308 301 304 266 309 330 327 340 340 334 335 225 256 231 232 216 196 203 206 184 194 188 205 206 214 159 97 180 138 197 144 129 111 155 138 130 140 132 136 132
244 265 291 316 325 324 308 298 296 304 301 330 330 349 336 338 315 226 249 236 220 217 201 203 209 183 191 190 204 203 191 91 172 191 136 191 196 151 139 139 149 137 146 146 148
246 127 325 357 332 292 319 296 286 293 290 300 326 327 345 327 336 316 223 236 239 220 207 199 202 207 183 203 179 167 203 195 90 91 194 158 141 174 142 146 140 146 140 142 145
254 216 269 339 327 313 310 303 297 308 282 285 303 327 319 322 325 335 264 225 236 224 215 196 196 202 207 185 180 179 204 205 127 201 204 199 140 143 142 140 139 141 145 146 114
238 212 254 335 352 324 270 299 294 299 296 287 295 303 325 310 309 322 328 252 231 225 217 204 196 196 205 199 183 175 178 206 207 199 203 194 135 97 194 141 148 191 150 121 102
245 222 243 266 341 342 315 309 316 352 369 310 286 296 307 317 299 312 327 330 240 226 222 205 210 209 201 208 192 178 171 184 191 198 200 190 182 152 208 220 141 111 135 143 139
203 134 238 257 338 340 321 325 336 337 366 334 303 293 298 312 306 300 312 331 352 224 219 196 202 206 210 201 191 184 175 169 158 198 194 191 188 188 191 173 172 202 202 138 140
186 210 223 214 259 342 322 326 338 329 333 327 308 298 295 298 318 292 305 319 340 360 217 225 211 213 217 210 202 181 172 171 176 182 191 186 186 134 193 189 205 181 195 191 192
148 171 235 239 249 302 331 315 311 342 330 320 323 326 324 324 314 311 305 315 317 375 244 217 217 199 194 216 201 196 178 214 175 177 194 183 187 184 194 189 190 190 196 197 197
126 138 228 220 171 250 353 319 316 313 328 354 330 322 319 310 313 315 313 313 341 364 365 227 229 203 195 182 202 201 184 176 177 170 188 193 186 188 190 193 189 192 189 188 96
126 169 137 229 223 240 256 344 312 312 309 307 323 324 318 318 321 322 315 335 362 362 360 237 210 203 212 134 187 200 195 178 177 174 170 192 194 186 192 191 189 191 194 183 195
117 133 117 211 207 236 237 269 343 312 309 312 311 310 310 313 318 324 327 346 365 366 359 319 213 206 209 186 192 178 196 187 171 178 172 185 193 193 197 193 192 194 169 168 189
197 188 121 212 217 230 237 238 334 333 311 313 321 318 319 314 324 329 344 357 360 355 356 370 229 213 208 204 188 178 198 190 167 167 177 166 194 193 190 194 72 74 72 83 178
203 138 126 123 193 157 224 234 241 358 328 315 313 313 315 314 320 328 341 349 355 353 352 336 233 203 226 210 190 183 201 193 181 166 115 106 120 120 183 179 184 197 198 189 185
198 178 196 181 120 198 204 219 229 242 336 338 310 320 312 312 312 319 327 336 343 347 347 301 227 208 201 197 192 186 199 193 179 158 162 167 164 188 190 183 161 172 171 175 172
183 197 192 186 206 112 189 198 219 234 243 352 321 328 308 315 311 314 316 334 343 334 339 302 220 207 205 199 194 185 197 193 178 173 163 164 162 161 166 177 183 161 167 168 160
190 183 194 199 169 191 159 207 202 216 226 244 346 302 323 308 310 310 313 317 322 328 318 308 223 210 206 197 196 181 192 192 171 168 169 164 160 164 166 167 167 165 160 163 165
132 185 158 182 181 196 194 170 185 219 215 221 245 323 279 304 306 307 311 316 294 323 309 302 226 212 207 198 191 186 185 191 190 175 172 168 164 165 167 169 133 163 167 168 169
149 185 148 157 194 178 202 208 122 190 211 201 225 221 299 275 278 303 309 301 168 271 304 210 228 208 199 188 187 184 175 171 168 159 169 167 165 165 166 167 166 164 166 168 167
186 171 171 189 182 188 184 185 170 142 191 208 195 178 223 286 268 255 267 295 314 306 296 189 213 207 192 190 188 181 170 180 178 174 170 170 168 169 173 174 171 171 170 175 173
168 176 171 178 183 182 171 172 173 164 131 202 197 198 200 212 228 259 244 230 275 296 303 290 218 194 194 190 187 182 177 177 176 174 173 172 170 172 171 173 175 173 176 177 177
178 180 138 168 170 186 179 176 167 191 195 181 173 185 201 189 215 209 230 256 227 234 279 302 273 228 191 189 186 183 181 178 178 178 175 171 175 174 175 178 178 177 178 176 176
182 174 183 169 183 174 189 170 187 164 175 204 174 179 185 192 201 199 215 218 221 238 225 216 236 285 272 232 207 193 188 187 185 185 184 184 184 186 186 183 146 173 184 185 186
180 188 184 158 174 144 183 160 168 173 164 164 189 199 182 199 186 187 202 210 194 189 202 199 216 232 242 245 252 264 267 266 261 238 234 141 224 235 238 257 253 246 223 224 225
180 179 176 170 168 182 181 169 185 169 186 186 187 171 179 204 146 203 183 187 172 194 199 198 197 209 201 200 198 195 200 204 207 207 207 202 200 201 211 209 205 204 202 200 199
Wind_Speed
50 47 56 46 39 32 35 41 31 34 22 37 55 76 86 91 95 89 87 85 82 80 74 71 77 78 70 56 33 33 44 56 54 49 49 45 42 42 41 39 36 34 34 28 33
34 63 58 43 41 36 35 36 32 31 21 28 43 59 68 87 92 95 91 87 74 82 81 74 76 78 75 72 49 66 32 61 53 58 59 53 42 44 40 40 35 35 35 34 27
70 68 55 44 39 38 34 33 29 24 21 20 31 45 55 66 89 99 91 91 88 84 82 81 75 73 69 72 70 65 52 30 59 52 56 46 37 35 48 41 38 37 36 37 35
70 77 55 50 39 33 30 28 27 23 17 15 19 33 45 51 77 90 98 93 90 88 85 83 80 72 71 68 70 67 68 28 59 59 50 54 52 49 44 44 46 38 41 41 41
76 41 69 56 41 35 21 26 25 24 18 15 13 24 37 50 55 74 91 94 94 89 88 83 81 78 72 71 64 64 70 63 30 28 57 51 50 52 47 48 44 44 41 39 41
85 68 90 62 44 35 28 25 27 21 21 17 17 21 34 44 50 50 104 92 94 91 89 85 81 79 77 71 66 64 70 69 43 58 54 53 48 51 48 46 45 44 45 44 32
84 69 89 66 51 39 34 33 30 27 25 25 20 17 37 43 48 48 55 106 93 91 90 87 82 78 75 76 68 64 62 67 62 55 52 52 51 33 45 50 51 55 50 41 32
88 74 89 95 58 44 39 36 33 30 17 26 25 20 17 43 48 46 48 57 101 94 92 88 85 80 77 74 71 65 62 59 56 54 51 51 58 51 43 44 51 42 47 48 46
71 41 86 97 69 54 49 49 39 36 3 19 28 26 22 26 44 50 48 46 47 96 91 86 84 79 77 75 70 65 60 57 46 54 51 51 54 52 49 47 49 51 51 47 49
64 71 77 76 98 62 59 56 45 30 24 8 18 24 26 28 36 51 47 46 46 56 92 92 85 81 77 73 66 64 60 59 55 51 53 53 54 50 49 50 46 51 54 54 54
38 58 87 91 99 88 60 62 58 33 27 14 3 11 17 22 31 41 47 44 53 43 103 87 85 78 74 74 72 70 64 70 59 55 56 55 53 52 49 51 52 51 52 53 52
34 37 84 78 55 100 62 61 54 53 43 17 8 1 9 17 25 32 35 39 37 44 55 90 87 80 76 70 70 69 64 59 56 52 49 53 53 50 51 54 54 53 53 53 29
32 52 39 89 87 94 102 57 60 53 48 44 33 20 13 6 8 18 26 22 25 43 53 95 81 80 78 46 69 69 66 59 55 53 50 52 53 50 53 55 54 54 54 53 54
28 29 25 76 69 93 93 96 50 55 48 39 31 24 17 7 2 8 11 14 23 39 53 77 80 79 77 73 70 66 64 60 53 51 49 51 53 51 53 57 54 55 49 50 54
62 42 30 76 86 91 92 92 71 47 52 45 33 27 21 13 9 6 6 15 25 39 49 61 86 76 73 71 68 63 62 58 49 48 47 44 50 50 52 55 29 30 28 35 53
62 26 34 29 54 42 85 89 92 57 50 46 39 34 29 24 19 15 10 15 25 38 47 76 85 72 78 68 66 60 59 56 50 46 28 31 37 41 52 51 50 57 60 58 57
55 49 53 51 22 63 65 81 87 89 65 41 45 33 29 24 22 17 14 17 24 34 48 67 75 69 65 64 60 56 56 53 47 42 44 46 45 57 55 51 51 51 53 55 55
37 58 49 38 72 15 57 55 81 85 87 49 48 35 34 25 23 22 17 15 21 35 50 71 68 63 61 60 58 54 53 51 47 45 48 46 45 55 54 51 52 56 56 57 60
48 37 55 57 29 45 36 65 61 76 79 81 49 54 34 31 25 22 19 16 18 34 51 65 66 60 57 54 51 49 49 49 42 43 46 46 49 54 58 59 57 58 60 62 64
32 44 34 44 29 52 45 41 35 73 68 72 74 55 59 42 32 27 19 14 15 33 48 58 64 57 53 49 48 47 44 44 45 44 46 49 52 57 61 62 52 63 62 64 67
33 44 39 33 54 19 58 63 18 44 67 50 68 59 55 53 48 33 24 13 7 21 41 35 60 49 44 44 44 43 43 43 44 48 50 53 57 62 65 66 66 67 66 69 72
43 32 26 48 37 43 23 34 17 12 38 59 41 25 58 51 46 42 32 24 11 14 30 21 47 47 38 40 42 43 44 47 48 52 53 56 61 66 67 65 65 68 71 72 74
28 37 33 39 43 38 19 17 11 15 27 52 41 38 45 50 46 40 33 23 21 12 12 28 45 37 39 41 44 46 47 49 51 54 57 60 67 70 67 67 67 69 71 75 77
40 43 36 34 30 47 34 16 8 47 46 19 22 20 31 25 45 35 33 28 15 13 11 12 24 38 42 44 46 49 51 53 56 60 63 65 70 72 69 70 69 72 76 77 79
52 36 45 34 44 41 50 24 47 15 14 48 1 12 31 18 32 28 35 27 20 15 7 10 11 11 22 37 47 51 52 56 59 60 61 69 68 71 70 71 62 74 80 82 85
49 47 48 34 37 40 46 23 26 33 29 19 39 43 5 32 7 14 29 23 16 8 10 5 4 5 8 10 14 20 26 33 40 47 51 51 60 57 57 55 54 55 64 65 65
53 47 47 49 41 50 47 37 46 31 43 43 43 23 17 34 27 33 5 6 23 6 2 5 5 3 9 14 20 25 23 26 27 29 32 38 42 43 42 46 51 56 60 64 67
Wind_Direction
334 325 325 319 321 304 297 300 303 316 282 235 226 236 234 232 231 229 227 229 228 227 229 229 228 231 230 228 226 235 233 232 232 235 236 237 238 239 241 241 239 240 246 251 255
338 343 336 338 334 331 314 308 313 291 296 250 232 225 228 230 227 227 226 224 229 226 225 228 226 228 231 229 227 232 243 234 231 233 236 238 235 238 242 246 245 245 246 247 253
355 352 353 347 335 326 322 314 307 313 333 258 241 234 226 224 226 224 224 223 223 226 223 224 227 227 227 230 229 228 228 240 232 234 237 236 242 245 243 242 239 247 244 248 251
357 1 352 354 348 330 312 321 315 314 305 323 255 231 225 221 221 224 223 222 220 221 222 221 222 226 227 227 229 228 233 236 231 234 237 237 239 240 242 245 248 246 255 255 258
3 331 4 360 356 348 329 326 320 299 311 315 289 239 217 218 218 220 222 221 220 218 219 220 220 220 224 224 224 227 228 230 239 243 233 238 240 240 244 248 250 250 251 254 259
9 359 10 6 1 358 355 338 332 321 282 289 294 243 225 216 219 221 218 220 219 216 217 219 218 219 219 224 223 224 226 229 231 232 232 235 239 241 244 247 249 251 254 257 253
9 2 10 10 7 2 353 347 334 311 282 272 267 249 223 216 217 217 218 216 216 215 215 217 218 218 218 221 223 223 228 228 229 232 230 232 241 250 241 247 249 244 257 257 260
10 7 11 14 10 6 6 356 336 342 280 243 250 239 235 217 216 218 221 216 213 214 213 214 216 216 217 218 222 223 228 230 228 229 229 231 237 241 244 238 250 253 255 258 257
3 338 12 16 16 14 14 9 8 7 133 195 219 230 227 220 217 217 216 217 216 212 211 213 214 214 215 218 221 225 226 230 228 230 227 230 236 241 243 245 246 246 247 258 258
347 5 11 10 19 18 16 20 18 15 42 121 200 221 227 224 216 214 216 216 215 209 210 212 210 212 214 215 218 224 225 229 231 230 229 232 236 247 243 246 243 248 249 255 258
350 358 17 17 18 21 20 20 25 34 15 26 90 219 211 208 210 214 216 217 211 204 207 208 209 210 211 212 215 218 222 216 227 228 230 232 237 242 243 247 249 249 250 253 256
337 347 16 17 5 20 22 24 24 28 37 40 47 123 189 204 212 212 212 214 212 200 202 206 206 207 211 215 213 217 222 226 230 232 233 235 240 242 244 245 250 253 255 258 259
323 356 339 19 19 19 23 25 26 25 31 32 47 59 75 124 180 200 214 212 202 196 198 202 202 204 208 218 215 216 219 224 226 230 234 237 240 243 242 247 251 254 256 260 262
326 330 333 22 18 21 22 25 27 28 29 35 39 45 47 42 208 212 214 203 190 192 192 197 201 203 206 210 212 220 218 222 226 230 235 238 241 241 242 248 252 253 257 260 263
2 2 330 13 21 20 23 25 30 30 31 31 41 46 53 61 70 98 155 168 176 188 188 189 201 202 205 208 212 219 218 223 228 233 235 243 242 244 247 248 273 275 274 273 266
4 332 324 330 15 6 24 26 27 35 37 35 35 44 49 55 62 76 108 149 169 183 182 188 197 201 204 206 213 218 218 223 227 234 242 253 253 256 250 255 258 257 257 263 267
3 346 5 355 331 14 25 28 26 29 35 42 35 45 49 55 62 71 105 134 162 176 181 188 196 200 204 207 213 218 219 224 228 236 238 241 245 248 252 255 259 264 265 266 269
356 6 8 15 10 313 23 31 26 28 29 38 37 45 44 54 62 73 89 113 156 174 181 187 195 200 204 207 211 217 221 225 228 231 238 243 246 253 257 258 259 261 265 267 266
354 358 4 6 351 18 354 25 33 29 30 31 40 41 47 50 59 65 83 110 152 174 182 188 196 200 203 209 214 220 224 227 232 235 240 245 247 253 257 258 258 258 262 266 268
304 354 342 352 6 9 21 13 25 19 30 34 34 42 44 48 54 60 70 107 152 176 185 190 196 201 204 208 214 219 225 232 235 239 244 245 246 250 254 257 261 260 262 265 268
316 345 321 320 2 13 6 6 324 46 24 38 34 35 46 47 48 55 64 83 191 180 189 201 197 202 205 211 216 222 227 231 232 233 241 244 246 249 252 255 259 262 265 267 267
337 324 325 350 359 358 13 9 344 10 40 24 47 34 40 51 49 49 56 61 98 177 193 216 198 205 209 214 220 225 228 234 236 239 242 247 251 253 254 258 262 264 267 270 273
311 329 328 339 344 350 330 350 345 333 301 15 41 50 50 43 43 50 49 52 70 99 193 207 204 209 215 220 224 228 231 236 239 242 244 246 250 254 258 262 265 267 270 272 275
318 316 293 313 321 337 340 339 314 355 356 58 8 63 38 74 38 47 50 58 65 79 105 165 217 217 221 226 229 233 237 239 242 244 245 248 253 256 262 266 269 271 271 273 276
310 308 321 302 325 324 330 316 337 271 336 349 76 4 357 28 27 48 31 46 59 80 118 187 197 202 228 237 238 240 243 245 247 252 255 259 261 265 268 271 271 274 275 276 277
309 313 316 294 313 298 324 259 298 310 289 263 342 344 74 360 90 121 16 19 81 121 87 161 121 181 201 230 246 251 252 255 258 260 262 267 268 274 275 276 278 279 276 279 282
303 305 305 305 299 314 315 305 319 302 321 320 326 285 318 339 267 345 185 159 212 350 328 338 232 252 232 235 240 242 246 248 252 255 258 260 265 269 275 274 272 273 275 278 279